,,,PA_Meas_PMT16A,,PR_Meas_QMR101_102,,RH_Meas_QMH101,,SR_Meas_QMS101,,TA_Meas_QMH101,,GenWind,,GenWind,
date,time,status,PA,status,PR,status,RH,status,SR,status,TA,status,DirAvg,status,SpdAvg,
2009-06-15, 00:00:05,VALID,1000.05,VALID,0,VALID,84.4294,VALID,0,VALID,24.7727,VALID,108,VALID,0.456641,
2009-06-15, 00:01:05,VALID,1000.05,VALID,0,VALID,84.8948,VALID,0,VALID,24.7356,VALID,108,VALID,0.460938,
2009-06-15, 00:02:05,VALID,1000.01,VALID,0,VALID,86.3063,VALID,0,VALID,24.6556,VALID,76,VALID,0.698047,
2009-06-15, 00:03:05,VALID,1000.03,VALID,0,VALID,87.5194,VALID,0,VALID,24.5989,VALID,63,VALID,0.735547,
2009-06-15, 00:04:05,VALID,1000.02,VALID,0,VALID,88.0229,VALID,0,VALID,24.5013,VALID,63,VALID,0.618359,
2009-06-15, 00:05:05,VALID,1000.03,VALID,0,VALID,88.6028,VALID,0,VALID,24.4233,VALID,63,VALID,0.485938,
2009-06-15, 00:06:05,VALID,1000.03,VALID,0,VALID,89.0606,VALID,0,VALID,24.3452,VALID,63,VALID,0.544141,
2009-06-15, 00:07:05,VALID,1000.03,VALID,0,VALID,89.4039,VALID,0,VALID,24.2866,VALID,63,VALID,0.592578,
2009-06-15, 00:08:05,VALID,1000.01,VALID,0,VALID,89.9456,VALID,0,VALID,24.2476,VALID,63,VALID,0.570703,
2009-06-15, 00:09:05,VALID,999.999,VALID,0,VALID,90.2966,VALID,0,VALID,24.2086,VALID,63,VALID,0.577344,
2009-06-15, 00:10:05,VALID,1000.01,VALID,0,VALID,90.5788,VALID,0,VALID,24.1696,VALID,63,VALID,0.634375,
2009-06-15, 00:11:05,VALID,1000.02,VALID,0,VALID,90.8611,VALID,0,VALID,24.1287,VALID,63,VALID,0.351953,
2009-06-15, 00:12:05,VALID,1000.01,VALID,0,VALID,90.9832,VALID,0,VALID,24.0897,VALID,63,VALID,0.450391,
2009-06-15, 00:13:05,VALID,999.967,VALID,0,VALID,91.3571,VALID,0,VALID,24.0915,VALID,63,VALID,0.612891,
2009-06-15, 00:14:05,VALID,999.961,VALID,0,VALID,91.6317,VALID,0,VALID,24.0915,VALID,49,VALID,0.754297,
2009-06-15, 00:15:05,VALID,999.96,VALID,0,VALID,91.7843,VALID,0,VALID,24.0525,VALID,48,VALID,0.53125,
2009-06-15, 00:16:05,VALID,999.967,VALID,0,VALID,91.8301,VALID,0,VALID,24.0329,VALID,48,VALID,0.458594,
2009-06-15, 00:17:05,VALID,999.954,VALID,0,VALID,91.8606,VALID,0,VALID,24.0329,VALID,48,VALID,0.576563,
2009-06-15, 00:18:05,VALID,999.954,VALID,0,VALID,91.9827,VALID,0,VALID,23.9726,VALID,48,VALID,0.526953,
2009-06-15, 00:19:05,VALID,999.94,VALID,0,VALID,92.0132,VALID,0,VALID,24.0134,VALID,48,VALID,0.652344,
2009-06-15, 00:20:05,VALID,999.937,VALID,0,VALID,92.1277,VALID,0,VALID,23.9939,VALID,48,VALID,0.702344,
2009-06-15, 00:21:05,VALID,999.95,VALID,0,VALID,91.9751,VALID,0,VALID,23.9549,VALID,48,VALID,0.605859,
2009-06-15, 00:22:05,VALID,999.926,VALID,0,VALID,92.0437,VALID,0,VALID,23.9354,VALID,48,VALID,0.556641,
2009-06-15, 00:23:05,VALID,999.926,VALID,0,VALID,92.1048,VALID,0,VALID,23.8963,VALID,48,VALID,0.589844,
2009-06-15, 00:24:05,VALID,999.922,VALID,0,VALID,92.1887,VALID,0,VALID,23.8768,VALID,48,VALID,0.628125,
2009-06-15, 00:25:05,VALID,999.892,VALID,0,VALID,92.2421,VALID,0,VALID,23.8555,VALID,48,VALID,0.954687,
2009-06-15, 00:26:05,VALID,999.894,VALID,0,VALID,92.1887,VALID,0,VALID,23.8573,VALID,48,VALID,0.898828,
2009-06-15, 00:27:05,VALID,999.87,VALID,0,VALID,92.0437,VALID,0,VALID,23.8183,VALID,48,VALID,0.802344,
2009-06-15, 00:28:05,VALID,999.855,VALID,0,VALID,92.4863,VALID,0,VALID,23.7579,VALID,48,VALID,0.871094,
2009-06-15, 00:29:05,VALID,999.888,VALID,0,VALID,92.6694,VALID,0,VALID,23.7793,VALID,48,VALID,0.580469,
2009-06-15, 00:30:05,VALID,999.872,VALID,0,VALID,92.5015,VALID,0,VALID,23.7597,VALID,48,VALID,0.598047,
2009-06-15, 00:31:05,VALID,999.888,VALID,0,VALID,92.5854,VALID,0,VALID,23.7189,VALID,48,VALID,0.577734,
2009-06-15, 00:32:05,VALID,999.879,VALID,0,VALID,92.4557,VALID,0,VALID,23.7189,VALID,48,VALID,0.514063,
2009-06-15, 00:33:05,VALID,999.863,VALID,0,VALID,92.2421,VALID,0,VALID,23.6994,VALID,48,VALID,0.517578,
2009-06-15, 00:34:05,VALID,999.853,VALID,0,VALID,91.9674,VALID,0,VALID,23.7012,VALID,48,VALID,0.378516,
2009-06-15, 00:35:05,VALID,999.85,VALID,0,VALID,92.0819,VALID,0,VALID,23.6622,VALID,48,VALID,0.706641,
2009-06-15, 00:36:05,VALID,999.821,VALID,0,VALID,92.4557,VALID,0,VALID,23.6799,VALID,48,VALID,0.893359,
2009-06-15, 00:37:05,VALID,999.832,VALID,0,VALID,92.3413,VALID,0,VALID,23.7402,VALID,48,VALID,0.809375,
2009-06-15, 00:38:05,VALID,999.814,VALID,0,VALID,92.2879,VALID,0,VALID,23.7793,VALID,48,VALID,0.829297,
2009-06-15, 00:39:05,VALID,999.832,VALID,0,VALID,92.2192,VALID,0,VALID,23.8183,VALID,48,VALID,0.799609,
2009-06-15, 00:40:05,VALID,999.864,VALID,0,VALID,92.0209,VALID,0,VALID,23.836,VALID,48,VALID,0.633203,
2009-06-15, 00:41:05,VALID,999.867,VALID,0,VALID,91.7691,VALID,0,VALID,23.8555,VALID,48,VALID,0.599219,
2009-06-15, 00:42:05,VALID,999.876,VALID,0,VALID,91.4105,VALID,0.112286,VALID,23.8555,VALID,48,VALID,0.456641,
2009-06-15, 00:43:05,VALID,999.885,VALID,0,VALID,91.174,VALID,0,VALID,23.797,VALID,48,VALID,0.375391,
2009-06-15, 00:44:05,VALID,999.864,VALID,0,VALID,91.4868,VALID,0,VALID,23.797,VALID,48,VALID,0.494531,
2009-06-15, 00:45:05,VALID,999.875,VALID,0,VALID,90.9298,VALID,0,VALID,23.7579,VALID,48,VALID,0.733594,
2009-06-15, 00:46:05,VALID,999.869,VALID,0,VALID,91.853,VALID,0,VALID,23.7189,VALID,48,VALID,0.8125,
2009-06-15, 00:47:05,VALID,999.837,VALID,0,VALID,91.9369,VALID,0.112286,VALID,23.7384,VALID,48,VALID,0.890234,
2009-06-15, 00:48:05,VALID,999.81,VALID,0,VALID,91.8911,VALID,0,VALID,23.7775,VALID,48,VALID,0.705859,
2009-06-15, 00:49:05,VALID,999.852,VALID,0,VALID,91.4181,VALID,0.112286,VALID,23.7384,VALID,48,VALID,0.653516,
2009-06-15, 00:50:05,VALID,999.864,VALID,0,VALID,91.0214,VALID,0,VALID,23.6799,VALID,44,VALID,0.686328,
2009-06-15, 00:51:05,VALID,999.87,VALID,0,VALID,91.0137,VALID,0,VALID,23.6019,VALID,43,VALID,0.757813,
2009-06-15, 00:52:05,VALID,999.872,VALID,0,VALID,91.2045,VALID,0.112286,VALID,23.5433,VALID,13,VALID,0.394531,
2009-06-15, 00:53:05,VALID,999.876,VALID,0,VALID,91.6165,VALID,0,VALID,23.4848,VALID,13,VALID,0.587109,
2009-06-15, 00:54:05,VALID,999.901,VALID,0,VALID,92.204,VALID,0.112286,VALID,23.4848,VALID,1,VALID,0.688672,
2009-06-15, 00:55:05,VALID,999.935,VALID,0,VALID,92.4939,VALID,0,VALID,23.5061,VALID,1,VALID,0.578516,
2009-06-15, 00:56:05,VALID,999.932,VALID,0,VALID,92.4786,VALID,0,VALID,23.5061,VALID,1,VALID,0.489062,
2009-06-15, 00:57:05,VALID,999.941,VALID,0,VALID,92.6846,VALID,0,VALID,23.5061,VALID,1,VALID,0.558203,
2009-06-15, 00:58:05,VALID,999.942,VALID,0,VALID,92.7685,VALID,0,VALID,23.5274,VALID,1,VALID,0.514453,
2009-06-15, 00:59:05,VALID,999.947,VALID,0,VALID,92.7838,VALID,0,VALID,23.5061,VALID,1,VALID,0.454297,
2009-06-15, 01:00:05,VALID,999.942,VALID,0,VALID,92.8601,VALID,0,VALID,23.5061,VALID,1,VALID,0.425781,
2009-06-15, 01:01:05,VALID,999.966,VALID,0,VALID,92.7991,VALID,0,VALID,23.5256,VALID,1,VALID,0.301172,
2009-06-15, 01:02:05,VALID,999.926,VALID,0,VALID,92.8372,VALID,0,VALID,23.5061,VALID,1,VALID,0.226172,
2009-06-15, 01:03:05,VALID,999.895,VALID,0,VALID,92.8754,VALID,0,VALID,23.5274,VALID,1,VALID,0.114844,
2009-06-15, 01:04:05,VALID,999.896,VALID,0,VALID,92.8296,VALID,0,VALID,23.5256,VALID,1,VALID,0.212891,
2009-06-15, 01:05:05,VALID,999.873,VALID,0,VALID,92.9517,VALID,0,VALID,23.5274,VALID,1,VALID,0.590625,
2009-06-15, 01:06:05,VALID,999.891,VALID,0,VALID,92.9745,VALID,0,VALID,23.5256,VALID,1,VALID,0.614062,
2009-06-15, 01:07:05,VALID,999.865,VALID,0,VALID,92.8983,VALID,0,VALID,23.5451,VALID,296,VALID,0.700781,
2009-06-15, 01:08:05,VALID,999.896,VALID,0,VALID,92.8983,VALID,0,VALID,23.5664,VALID,282,VALID,0.403906,
2009-06-15, 01:09:05,VALID,999.886,VALID,0,VALID,92.822,VALID,0,VALID,23.5859,VALID,282,VALID,0.235547,
2009-06-15, 01:10:05,VALID,999.876,VALID,0,VALID,92.7991,VALID,0,VALID,23.5451,VALID,282,VALID,0,
2009-06-15, 01:11:05,VALID,999.875,VALID,0,VALID,92.7991,VALID,0,VALID,23.5451,VALID,282,VALID,0.176172,
2009-06-15, 01:12:05,VALID,999.869,VALID,0,VALID,92.8906,VALID,0,VALID,23.5451,VALID,253,VALID,0.689844,
2009-06-15, 01:13:05,VALID,999.835,VALID,0,VALID,92.8525,VALID,0,VALID,23.5451,VALID,252,VALID,0.257422,
2009-06-15, 01:14:05,VALID,999.87,VALID,0,VALID,92.6007,VALID,0,VALID,23.5451,VALID,252,VALID,0.123438,
2009-06-15, 01:15:05,VALID,999.833,VALID,0,VALID,92.7151,VALID,0,VALID,23.5256,VALID,252,VALID,0.203125,
2009-06-15, 01:16:05,VALID,999.843,VALID,0,VALID,92.7914,VALID,0,VALID,23.5451,VALID,252,VALID,0.267969,
2009-06-15, 01:17:05,VALID,999.845,VALID,0,VALID,92.7762,VALID,0,VALID,23.5451,VALID,238,VALID,0.958594,
2009-06-15, 01:18:05,VALID,999.853,VALID,0,VALID,92.7151,VALID,0,VALID,23.6445,VALID,222,VALID,0.755469,
2009-06-15, 01:19:05,VALID,999.88,VALID,0,VALID,92.3566,VALID,0,VALID,23.6622,VALID,222,VALID,0.666406,
2009-06-15, 01:20:05,VALID,999.874,VALID,0,VALID,91.7996,VALID,0,VALID,23.7207,VALID,223,VALID,0.678516,
2009-06-15, 01:21:05,VALID,999.868,VALID,0,VALID,90.9451,VALID,0,VALID,23.7988,VALID,235,VALID,0.782031,
2009-06-15, 01:22:05,VALID,999.866,VALID,0,VALID,90.6323,VALID,0,VALID,23.8768,VALID,251,VALID,0.414453,
2009-06-15, 01:23:05,VALID,999.844,VALID,0,VALID,90.4415,VALID,0,VALID,23.8768,VALID,251,VALID,0.215625,
2009-06-15, 01:24:05,VALID,999.858,VALID,0,VALID,90.4644,VALID,0,VALID,23.8573,VALID,251,VALID,0.157422,
2009-06-15, 01:25:05,VALID,999.852,VALID,0,VALID,90.5941,VALID,0,VALID,23.8183,VALID,251,VALID,0,
2009-06-15, 01:26:05,VALID,999.805,VALID,0,VALID,90.2508,VALID,0,VALID,23.7402,VALID,251,VALID,0.316797,
2009-06-15, 01:27:05,VALID,999.77,VALID,0,VALID,90.9451,VALID,0,VALID,23.6817,VALID,252,VALID,0.437109,
2009-06-15, 01:28:05,VALID,999.771,VALID,0,VALID,91.1129,VALID,0,VALID,23.6427,VALID,252,VALID,0.336719,
2009-06-15, 01:29:05,VALID,999.785,VALID,0,VALID,91.38,VALID,0,VALID,23.6036,VALID,252,VALID,0.303906,
2009-06-15, 01:30:05,VALID,999.709,VALID,0,VALID,91.6775,VALID,0,VALID,23.5859,VALID,252,VALID,0.303516,
2009-06-15, 01:31:05,VALID,999.752,VALID,0,VALID,91.8683,VALID,0,VALID,23.5256,VALID,322,VALID,0.542578,
2009-06-15, 01:32:05,VALID,999.736,VALID,0,VALID,91.8377,VALID,0,VALID,23.5061,VALID,322,VALID,0.530469,
2009-06-15, 01:33:05,VALID,999.732,VALID,0,VALID,92.0819,VALID,0,VALID,23.4671,VALID,322,VALID,0.36875,
2009-06-15, 01:34:05,VALID,999.715,VALID,0,VALID,92.4176,VALID,0,VALID,23.4475,VALID,331,VALID,0.579687,
2009-06-15, 01:35:05,VALID,999.739,VALID,0,VALID,92.0437,VALID,0,VALID,23.4085,VALID,331,VALID,0.546094,
2009-06-15, 01:36:05,VALID,999.756,VALID,0,VALID,92.0666,VALID,0,VALID,23.389,VALID,331,VALID,0.429688,
2009-06-15, 01:37:05,VALID,999.742,VALID,0,VALID,91.9598,VALID,0,VALID,23.3695,VALID,331,VALID,0.358203,
2009-06-15, 01:38:05,VALID,999.731,VALID,0,VALID,91.9064,VALID,0,VALID,23.3908,VALID,331,VALID,0.590234,
2009-06-15, 01:39:05,VALID,999.744,VALID,0,VALID,92.1506,VALID,0,VALID,23.389,VALID,332,VALID,0.716016,
2009-06-15, 01:40:05,VALID,999.726,VALID,0,VALID,92.2116,VALID,0,VALID,23.4085,VALID,31,VALID,0.809766,
2009-06-15, 01:41:05,VALID,999.728,VALID,0,VALID,92.2726,VALID,0,VALID,23.4085,VALID,31,VALID,0.755469,
2009-06-15, 01:42:05,VALID,999.724,VALID,0,VALID,92.1353,VALID,0,VALID,23.4085,VALID,31,VALID,0.494141,
2009-06-15, 01:43:05,VALID,999.677,VALID,0,VALID,92.0895,VALID,0,VALID,23.3695,VALID,31,VALID,0.391797,
2009-06-15, 01:44:05,VALID,999.64,VALID,0,VALID,91.9445,VALID,0,VALID,23.35,VALID,31,VALID,0.526953,
2009-06-15, 01:45:05,VALID,999.635,VALID,0,VALID,92.2955,VALID,0,VALID,23.3518,VALID,31,VALID,0.497656,
2009-06-15, 01:46:05,VALID,999.634,VALID,0,VALID,92.3413,VALID,0,VALID,23.311,VALID,31,VALID,0.500391,
2009-06-15, 01:47:05,VALID,999.616,VALID,0,VALID,92.0895,VALID,0,VALID,23.2719,VALID,31,VALID,0.54375,
2009-06-15, 01:48:05,VALID,999.63,VALID,0,VALID,92.0514,VALID,0,VALID,23.2329,VALID,31,VALID,0.508984,
2009-06-15, 01:49:05,VALID,999.642,VALID,0,VALID,92.2345,VALID,0,VALID,23.2152,VALID,31,VALID,0.716016,
2009-06-15, 01:50:05,VALID,999.596,VALID,0,VALID,92.5091,VALID,0,VALID,23.2134,VALID,80,VALID,0.713672,
2009-06-15, 01:51:05,VALID,999.562,VALID,0,VALID,92.6694,VALID,0,VALID,23.2347,VALID,80,VALID,0.778906,
2009-06-15, 01:52:05,VALID,999.557,VALID,0,VALID,92.5015,VALID,0,VALID,23.1939,VALID,80,VALID,0.827344,
2009-06-15, 01:53:05,VALID,999.599,VALID,0,VALID,92.6236,VALID,0,VALID,23.1957,VALID,80,VALID,0.955469,
2009-06-15, 01:54:05,VALID,999.589,VALID,0,VALID,92.9898,VALID,0,VALID,23.2134,VALID,80,VALID,1.20078,
2009-06-15, 01:55:05,VALID,999.557,VALID,0,VALID,92.8372,VALID,0,VALID,23.2134,VALID,80,VALID,0.958984,
2009-06-15, 01:56:05,VALID,999.526,VALID,0,VALID,92.7228,VALID,0,VALID,23.1939,VALID,80,VALID,0.671484,
2009-06-15, 01:57:05,VALID,999.501,VALID,0,VALID,92.677,VALID,0,VALID,23.1744,VALID,80,VALID,0.495313,
2009-06-15, 01:58:05,VALID,999.51,VALID,0,VALID,92.6617,VALID,0,VALID,23.1744,VALID,80,VALID,0.605859,
2009-06-15, 01:59:05,VALID,999.501,VALID,0,VALID,92.6541,VALID,0,VALID,23.1762,VALID,80,VALID,0.525391,
2009-06-15, 02:00:05,VALID,999.477,VALID,0,VALID,92.7151,VALID,0,VALID,23.1549,VALID,80,VALID,0.593359,
2009-06-15, 02:01:05,VALID,999.462,VALID,0,VALID,92.8143,VALID,0,VALID,23.1549,VALID,69,VALID,0.751562,
2009-06-15, 02:02:05,VALID,999.448,VALID,0,VALID,92.6923,VALID,0,VALID,23.1354,VALID,69,VALID,0.666016,
2009-06-15, 02:03:05,VALID,999.431,VALID,0,VALID,92.5473,VALID,0,VALID,23.1354,VALID,69,VALID,0.597656,
2009-06-15, 02:04:04,VALID,999.391,VALID,0,VALID,92.471,VALID,0,VALID,23.1159,VALID,69,VALID,0.591016,
2009-06-15, 02:05:04,VALID,999.369,VALID,0,VALID,92.4023,VALID,0,VALID,23.1159,VALID,69,VALID,0.699219,
2009-06-15, 02:06:04,VALID,999.363,VALID,0,VALID,92.3871,VALID,0,VALID,23.0573,VALID,52,VALID,0.741406,
2009-06-15, 02:07:04,VALID,999.331,VALID,0,VALID,92.532,VALID,0,VALID,23.0378,VALID,48,VALID,0.884766,
2009-06-15, 02:08:04,VALID,999.346,VALID,0,VALID,92.6846,VALID,0,VALID,23.0378,VALID,45,VALID,0.886328,
2009-06-15, 02:09:04,VALID,999.347,VALID,0,VALID,92.4252,VALID,0,VALID,22.9793,VALID,45,VALID,0.744922,
2009-06-15, 02:10:04,VALID,999.375,VALID,0,VALID,92.4328,VALID,0,VALID,22.9208,VALID,43,VALID,0.926953,
2009-06-15, 02:11:04,VALID,999.388,VALID,0,VALID,92.4786,VALID,0,VALID,22.8623,VALID,41,VALID,1.01758,
2009-06-15, 02:12:04,VALID,999.375,VALID,0,VALID,92.9898,VALID,0,VALID,22.8818,VALID,41,VALID,0.892187,
2009-06-15, 02:13:04,VALID,999.355,VALID,0,VALID,92.9974,VALID,0,VALID,22.8818,VALID,41,VALID,0.839453,
2009-06-15, 02:14:04,VALID,999.371,VALID,0,VALID,92.8372,VALID,0,VALID,22.8623,VALID,40,VALID,0.857422,
2009-06-15, 02:15:04,VALID,999.398,VALID,0,VALID,92.8601,VALID,0,VALID,22.8427,VALID,32,VALID,0.869531,
2009-06-15, 02:16:04,VALID,999.377,VALID,0,VALID,93.0127,VALID,0,VALID,22.864,VALID,32,VALID,0.655078,
2009-06-15, 02:17:04,VALID,999.392,VALID,0,VALID,93.0127,VALID,0,VALID,22.8427,VALID,32,VALID,0.690625,
2009-06-15, 02:18:04,VALID,999.401,VALID,0,VALID,93.2034,VALID,0,VALID,22.8818,VALID,16,VALID,0.773438,
2009-06-15, 02:19:04,VALID,999.388,VALID,0,VALID,92.9822,VALID,0,VALID,22.8623,VALID,16,VALID,0.408984,
2009-06-15, 02:20:04,VALID,999.377,VALID,0,VALID,93.028,VALID,0,VALID,22.8427,VALID,17,VALID,0.738281,
2009-06-15, 02:21:04,VALID,999.407,VALID,0,VALID,93.0814,VALID,0,VALID,22.8623,VALID,17,VALID,0.923047,
2009-06-15, 02:22:04,VALID,999.398,VALID,0,VALID,93.1195,VALID,0,VALID,22.8623,VALID,16,VALID,0.994922,
2009-06-15, 02:23:04,VALID,999.397,VALID,0,VALID,93.1805,VALID,0,VALID,22.8818,VALID,7,VALID,0.88125,
2009-06-15, 02:24:04,VALID,999.418,VALID,0,VALID,93.2645,VALID,0,VALID,22.9208,VALID,1,VALID,0.709375,
2009-06-15, 02:25:04,VALID,999.425,VALID,0,VALID,93.1348,VALID,0,VALID,22.9208,VALID,1,VALID,0.207422,
2009-06-15, 02:26:04,VALID,999.432,VALID,0,VALID,93.234,VALID,0,VALID,22.9615,VALID,1,VALID,0.473437,
2009-06-15, 02:27:04,VALID,999.419,VALID,0,VALID,93.2111,VALID,0,VALID,22.9811,VALID,1,VALID,0.233984,
2009-06-15, 02:28:04,VALID,999.432,VALID,0,VALID,92.9974,VALID,0,VALID,22.9403,VALID,1,VALID,0.166797,
2009-06-15, 02:29:04,VALID,999.411,VALID,0,VALID,93.0432,VALID,0,VALID,22.9208,VALID,1,VALID,0.759375,
2009-06-15, 02:30:04,VALID,999.423,VALID,0,VALID,93.028,VALID,0,VALID,22.942,VALID,11,VALID,0.763281,
2009-06-15, 02:31:04,VALID,999.441,VALID,0,VALID,92.944,VALID,0,VALID,22.9403,VALID,34,VALID,0.616406,
2009-06-15, 02:32:04,VALID,999.431,VALID,0,VALID,92.7075,VALID,0,VALID,22.942,VALID,35,VALID,0.842969,
2009-06-15, 02:33:04,VALID,999.438,VALID,0,VALID,92.6694,VALID,0,VALID,22.9208,VALID,35,VALID,1.02773,
2009-06-15, 02:34:04,VALID,999.449,VALID,0,VALID,92.5015,VALID,0,VALID,22.9013,VALID,35,VALID,1.14102,
2009-06-15, 02:35:04,VALID,999.411,VALID,0,VALID,92.7838,VALID,0,VALID,22.9403,VALID,35,VALID,1.07344,
2009-06-15, 02:36:04,VALID,999.458,VALID,0,VALID,92.5702,VALID,0,VALID,22.9793,VALID,35,VALID,1.0043,
2009-06-15, 02:37:04,VALID,999.449,VALID,0,VALID,92.5091,VALID,0,VALID,23.0201,VALID,35,VALID,1.01914,
2009-06-15, 02:38:04,VALID,999.444,VALID,0,VALID,92.2574,VALID,0,VALID,23.0201,VALID,35,VALID,1.11094,
2009-06-15, 02:39:04,VALID,999.486,VALID,0,VALID,92.0971,VALID,0,VALID,23.0183,VALID,35,VALID,0.945703,
2009-06-15, 02:40:04,VALID,999.471,VALID,0,VALID,91.6623,VALID,0,VALID,22.9793,VALID,35,VALID,0.897266,
2009-06-15, 02:41:04,VALID,999.477,VALID,0,VALID,92.0437,VALID,0,VALID,22.9811,VALID,33,VALID,0.948047,
2009-06-15, 02:42:04,VALID,999.476,VALID,0,VALID,92.1887,VALID,0,VALID,22.9811,VALID,21,VALID,1.10273,
2009-06-15, 02:43:04,VALID,999.462,VALID,0,VALID,92.0743,VALID,0,VALID,22.9598,VALID,21,VALID,0.997266,
2009-06-15, 02:44:04,VALID,999.469,VALID,0,VALID,91.7843,VALID,0,VALID,22.9208,VALID,21,VALID,0.994531,
2009-06-15, 02:45:04,VALID,999.495,VALID,0,VALID,92.0209,VALID,0,VALID,22.9225,VALID,21,VALID,1.09375,
2009-06-15, 02:46:04,VALID,999.496,VALID,0,VALID,92.2574,VALID,0,VALID,22.8818,VALID,21,VALID,1.15352,
2009-06-15, 02:47:04,VALID,999.497,VALID,0,VALID,92.2421,VALID,0,VALID,22.8818,VALID,21,VALID,0.959375,
2009-06-15, 02:48:04,VALID,999.521,VALID,0,VALID,92.3489,VALID,0,VALID,22.8818,VALID,21,VALID,0.7875,
2009-06-15, 02:49:04,VALID,999.534,VALID,0,VALID,92.471,VALID,0,VALID,22.8818,VALID,9,VALID,0.575781,
2009-06-15, 02:50:04,VALID,999.512,VALID,0,VALID,92.41,VALID,0,VALID,22.8623,VALID,9,VALID,0.380859,
2009-06-15, 02:51:04,VALID,999.525,VALID,0,VALID,92.5473,VALID,0,VALID,22.903,VALID,9,VALID,0.294922,
2009-06-15, 02:52:04,VALID,999.501,VALID,0,VALID,92.4252,VALID,0,VALID,22.8835,VALID,9,VALID,0.279687,
2009-06-15, 02:53:04,VALID,999.508,VALID,0,VALID,92.4557,VALID,0,VALID,22.8623,VALID,9,VALID,0.478516,
2009-06-15, 02:54:04,VALID,999.517,VALID,0,VALID,92.3031,VALID,0,VALID,22.8232,VALID,13,VALID,0.796094,
2009-06-15, 02:55:04,VALID,999.558,VALID,0,VALID,92.2497,VALID,0,VALID,22.8037,VALID,32,VALID,0.881641,
2009-06-15, 02:56:04,VALID,999.564,VALID,0,VALID,92.4023,VALID,0,VALID,22.7647,VALID,46,VALID,1.0625,
2009-06-15, 02:57:04,VALID,999.554,VALID,0,VALID,92.5854,VALID,0,VALID,22.8037,VALID,49,VALID,1.01445,
2009-06-15, 02:58:04,VALID,999.527,VALID,0,VALID,92.5244,VALID,0,VALID,22.825,VALID,51,VALID,1.06406,
2009-06-15, 02:59:04,VALID,999.528,VALID,0,VALID,92.6388,VALID,0,VALID,22.8623,VALID,51,VALID,0.939062,
2009-06-15, 03:00:04,VALID,999.501,VALID,0,VALID,92.4176,VALID,0,VALID,22.8818,VALID,55,VALID,0.971484,
2009-06-15, 03:01:04,VALID,999.533,VALID,0,VALID,92.4252,VALID,0,VALID,22.88,VALID,56,VALID,0.916016,
2009-06-15, 03:02:04,VALID,999.508,VALID,0,VALID,92.677,VALID,0,VALID,22.9013,VALID,55,VALID,1.04883,
2009-06-15, 03:03:04,VALID,999.53,VALID,0,VALID,92.7838,VALID,0,VALID,22.9225,VALID,58,VALID,1.06836,
2009-06-15, 03:04:04,VALID,999.522,VALID,0,VALID,92.822,VALID,0,VALID,22.903,VALID,56,VALID,1.02617,
2009-06-15, 03:05:04,VALID,999.534,VALID,0,VALID,92.7609,VALID,0,VALID,22.8835,VALID,54,VALID,0.998047,
2009-06-15, 03:06:04,VALID,999.51,VALID,0,VALID,92.8296,VALID,0,VALID,22.8835,VALID,54,VALID,0.998828,
2009-06-15, 03:07:04,VALID,999.512,VALID,0,VALID,92.9059,VALID,0,VALID,22.8835,VALID,54,VALID,0.953125,
2009-06-15, 03:08:04,VALID,999.511,VALID,0,VALID,92.883,VALID,0,VALID,22.8623,VALID,54,VALID,0.899219,
2009-06-15, 03:09:04,VALID,999.508,VALID,0,VALID,92.8296,VALID,0,VALID,22.864,VALID,54,VALID,0.817578,
2009-06-15, 03:10:04,VALID,999.519,VALID,0,VALID,92.8372,VALID,0,VALID,22.8427,VALID,45,VALID,0.596484,
2009-06-15, 03:11:04,VALID,999.516,VALID,0,VALID,92.7685,VALID,0,VALID,22.8445,VALID,35,VALID,0.714844,
2009-06-15, 03:12:04,VALID,999.49,VALID,0,VALID,92.8983,VALID,0,VALID,22.8232,VALID,34,VALID,1.16758,
2009-06-15, 03:13:04,VALID,999.506,VALID,0,VALID,92.7457,VALID,0,VALID,22.8445,VALID,34,VALID,0.836328,
2009-06-15, 03:14:04,VALID,999.495,VALID,0,VALID,92.5168,VALID,0,VALID,22.8055,VALID,34,VALID,0.457812,
2009-06-15, 03:15:04,VALID,999.462,VALID,0,VALID,92.8143,VALID,0,VALID,22.8055,VALID,34,VALID,0.440234,
2009-06-15, 03:16:04,VALID,999.433,VALID,0,VALID,92.7991,VALID,0,VALID,22.7842,VALID,34,VALID,0.475391,
2009-06-15, 03:17:04,VALID,999.427,VALID,0,VALID,92.9059,VALID,0,VALID,22.825,VALID,34,VALID,0.655859,
2009-06-15, 03:18:04,VALID,999.428,VALID,0,VALID,92.6694,VALID,0,VALID,22.8055,VALID,39,VALID,0.600391,
2009-06-15, 03:19:04,VALID,999.412,VALID,0,VALID,92.41,VALID,0,VALID,22.7842,VALID,47,VALID,0.611328,
2009-06-15, 03:20:04,VALID,999.413,VALID,0,VALID,92.4863,VALID,0,VALID,22.7452,VALID,53,VALID,0.874609,
2009-06-15, 03:21:04,VALID,999.38,VALID,0,VALID,92.616,VALID,0,VALID,22.7469,VALID,67,VALID,1.02266,
2009-06-15, 03:22:04,VALID,999.388,VALID,0,VALID,92.7533,VALID,0,VALID,22.7469,VALID,61,VALID,1.04219,
2009-06-15, 03:23:04,VALID,999.371,VALID,0,VALID,92.7838,VALID,0,VALID,22.7062,VALID,63,VALID,0.757031,
2009-06-15, 03:24:04,VALID,999.377,VALID,0,VALID,92.822,VALID,0,VALID,22.6867,VALID,63,VALID,0.822656,
2009-06-15, 03:25:04,VALID,999.375,VALID,0,VALID,92.8372,VALID,0,VALID,22.6672,VALID,62,VALID,0.593359,
2009-06-15, 03:26:04,VALID,999.352,VALID,0,VALID,92.8906,VALID,0,VALID,22.6477,VALID,58,VALID,0.639844,
2009-06-15, 03:27:04,VALID,999.326,VALID,0,VALID,93.0051,VALID,0,VALID,22.6282,VALID,58,VALID,0.586328,
2009-06-15, 03:28:04,VALID,999.329,VALID,0,VALID,93.028,VALID,0,VALID,22.6282,VALID,58,VALID,0.326562,
2009-06-15, 03:29:04,VALID,999.346,VALID,0,VALID,92.9898,VALID,0,VALID,22.6087,VALID,56,VALID,0.507031,
2009-06-15, 03:30:04,VALID,999.321,VALID,0,VALID,93.0585,VALID,0,VALID,22.6087,VALID,28,VALID,0.633984,
2009-06-15, 03:31:04,VALID,999.323,VALID,0,VALID,93.1119,VALID,0,VALID,22.5892,VALID,356,VALID,0.865234,
2009-06-15, 03:32:04,VALID,999.328,VALID,0,VALID,93.1424,VALID,0,VALID,22.6087,VALID,356,VALID,0.912109,
2009-06-15, 03:33:04,VALID,999.347,VALID,0,VALID,93.1424,VALID,0,VALID,22.5892,VALID,356,VALID,0.692578,
2009-06-15, 03:34:04,VALID,999.363,VALID,0,VALID,93.0203,VALID,0,VALID,22.5874,VALID,356,VALID,0.294922,
2009-06-15, 03:35:04,VALID,999.4,VALID,0,VALID,93.0051,VALID,0,VALID,22.5696,VALID,356,VALID,0.486719,
2009-06-15, 03:36:04,VALID,999.382,VALID,0,VALID,93.1958,VALID,0,VALID,22.5696,VALID,356,VALID,0.560547,
2009-06-15, 03:37:04,VALID,999.409,VALID,0,VALID,93.1805,VALID,0,VALID,22.5892,VALID,11,VALID,0.782422,
2009-06-15, 03:38:04,VALID,999.401,VALID,0,VALID,92.9898,VALID,0,VALID,22.5892,VALID,13,VALID,0.816016,
2009-06-15, 03:39:04,VALID,999.407,VALID,0,VALID,92.8754,VALID,0,VALID,22.5696,VALID,13,VALID,0.536719,
2009-06-15, 03:40:04,VALID,999.427,VALID,0,VALID,92.7838,VALID,0,VALID,22.5501,VALID,13,VALID,0.386719,
2009-06-15, 03:41:04,VALID,999.373,VALID,0,VALID,92.6694,VALID,0,VALID,22.5306,VALID,13,VALID,0.410156,
2009-06-15, 03:42:04,VALID,999.395,VALID,0,VALID,92.8296,VALID,0,VALID,22.5306,VALID,14,VALID,0.683984,
2009-06-15, 03:43:04,VALID,999.377,VALID,0,VALID,92.8983,VALID,0,VALID,22.5306,VALID,30,VALID,0.871875,
2009-06-15, 03:44:04,VALID,999.365,VALID,0,VALID,92.9593,VALID,0,VALID,22.5714,VALID,30,VALID,0.638672,
2009-06-15, 03:45:04,VALID,999.363,VALID,0,VALID,92.9288,VALID,0,VALID,22.5289,VALID,30,VALID,0.364844,
2009-06-15, 03:46:04,VALID,999.35,VALID,0,VALID,92.9822,VALID,0,VALID,22.5696,VALID,30,VALID,0.696875,